Starlink 34902

operational
NORAD ID: 65326 Int'l Des: 2025-189 Owner: SPXS Country: US Constellation: starlink
LEOCIRCULAR

关于 Starlink 34902

正在加载描述...

实时位置

正在加载3D地球...

即将过境

高度历史

Altitude vs Time

uPlot chart will show altitude changes over time

两行轨道根数

1 65326U 25189D 26062.47415655 .00032543 00000-0 11058-2 0 9994
2 65326 53.1576 235.7205 0001541 101.5339 258.5834 15.30208833 30155
Epoch: Mar 3, 2026 • Age: 27 hours

当前状态

高度 477.4 km
速度 7.63 km/s
星下点 37.05°N, 55.97°E
发射日期 Aug 27, 2025
运行时间 0.5 years
类型 internet

技术详情

分类 Payload
质量 575.00 kg
干质量 530.00 kg
总质量 575.00 kg
长度 0.30 m
直径 4.10 m
跨度 29.00 m
形状 Box + pan
制造商 SPXS
平台类型 Starlink V2MO
阶段状态 In Orbit
所有者/国家 SPXS/US

大型星座

Loading constellations...